This demonstration page uses our WeatherBlox Daily Observations layout. Learn more.

38.88101, -77.10428

Hourly Observations for July 1, 2016

Temp ( °F °C ) Dew Point ( °F °C ) Humidity (%) Winds ( mph kmh ) Pressure ( in mb ) Visibility ( mi km ) Precip ( " mm )
12:17 am 00:17 Mostly Cloudy 76 24.4 66 18.9 72 72 S 7 11 30.03 1017 10 16.0934 0 0
12:52 am 00:52 Cloudy 75 23.9 67 19.4 76 76 S 8 13 30.01 1016 10 16.0934 0 0
1:52 am 01:52 Mostly Clear 74 23.3 67 19.4 79 79 S 6 9 29.99 1016 10 16.0934 0 0
2:52 am 02:52 Clear 73 22.8 68 20 84 84 SSW 5 7 29.98 1015 10 16.0934 0 0
3:52 am 03:52 Mostly Cloudy 73 22.8 68 20 84 84 SSW 3 6 29.97 1015 10 16.0934 0 0
4:52 am 04:52 Mostly Cloudy 72 22.2 68 20 87 87 SE 6 9 29.98 1015 10 16.0934 0 0
5:52 am 05:52 Mostly Cloudy 71 21.7 68 20 90 90 SE 3 6 29.97 1015 10 16.0934 0 0
6:52 am 06:52 Mostly Cloudy 73 22.8 69 20.6 87 87 S 5 7 29.98 1015 10 16.0934 0 0
7:52 am 07:52 Mostly Cloudy 74 23.3 70 21.1 88 88 SE 5 7 29.98 1015 10 16.0934 0 0
8:24 am 08:24 Mostly Cloudy 75 24 72 22 89 89 S 6 9 29.97 1015 10 16.0934 0 0
8:52 am 08:52 Mostly Cloudy 76 24.4 71 21.7 85 85 SSW 5 7 29.97 1015 10 16.0934 0 0
9:52 am 09:52 Cloudy 77 25 71 21.7 82 82 S 5 7 29.97 1015 10 16.0934 0 0.0254
10:52 am 10:52 Mostly Cloudy 80 26.7 71 21.7 74 74 S 7 11 29.96 1014 10 16.0934 0 0
11:52 am 11:52 Mostly Cloudy 81 27.2 71 21.7 72 72 S 12 19 29.94 1014 10 16.0934 0 0
12:52 pm 12:52 Mostly Cloudy 83 28.3 72 22.2 70 70 SSE 9 15 29.93 1014 10 16.0934 0 0
1:52 pm 13:52 Mostly Cloudy 86 30 71 21.7 61 61 S 10 17 29.92 1013 10 16.0934 0 0
2:52 pm 14:52 Partly Cloudy 84 28.9 73 22.8 70 70 S 10 17 29.88 1012 10 16.0934 0 0
3:52 pm 15:52 Partly Cloudy 88 31.1 71 21.7 57 57 SSW 10 17 29.86 1011 10 16.0934 0 0
4:52 pm 16:52 Mostly Cloudy 88 31.1 71 21.7 57 57 SSW 9 15 29.86 1011 10 16.0934 0 0
5:22 pm 17:22 Mostly Cloudy 86 30 70 21 59 59 VRB 7 11 29.85 1011 10 16.0934 0 0
5:42 pm 17:42 Mostly Cloudy with Light Rain 86 30 70 21 59 59 WSW 12 19 29.85 1011 10 16.0934 0 0
5:48 pm 17:48 Cloudy with Heavy Thunderstorms 82 28 70 21 66 66 NW 23 37 29.88 1012 2.5 4.02335 0 0
5:52 pm 17:52 Cloudy with Heavy Thunderstorms 79 26.1 71 21.7 77 77 VRB 5 7 29.86 1011 4 6.43736 0.12 3.048
5:56 pm 17:56 Mostly Cloudy with Light Thunderstorms 79 26 70 21 74 74 WSW 8 13 29.85 1011 7 11.26538 0 0
6:11 pm 18:11 Mostly Cloudy with Thunderstorms 81 27.2 67 19.4 62 62 Calm 29.85 1011 10 16.0934 0.12 3.048
6:30 pm 18:30 Mostly Cloudy 82 28 73 23 74 74 VRB 3 6 29.85 1011 10 16.0934 0 0
6:52 pm 18:52 Mostly Cloudy 80 26.7 74 23.3 82 82 ESE 7 11 29.85 1011 10 16.0934 0.12 3.048
7:52 pm 19:52 Partly Cloudy 80 26.7 71 21.7 74 74 SSE 14 22 29.87 1012 10 16.0934 0 0
8:52 pm 20:52 Mostly Cloudy 78 25.6 69 20.6 74 74 S 13 20 29.9 1012 10 16.0934 0 0
9:20 pm 21:20 Mostly Cloudy 79 26 70 21 74 74 S 13 20 29.91 1013 10 16.0934 0 0
9:45 pm 21:45 Cloudy 77 25 71 21.7 82 82 NE 5 7 29.94 1014 10 16.0934 0 0
9:52 pm 21:52 Mostly Cloudy 77 25 71 21.7 82 82 ESE 8 13 29.93 1013 10 16.0934 0 0
10:10 pm 22:10 Mostly Cloudy 75 24 70 21 83 83 S 7 11 29.94 1014 10 16.0934 0 0
10:52 pm 22:52 Partly Cloudy 76 24.4 70 21.1 82 82 SSW 6 9 29.93 1014 10 16.0934 0 0
11:33 pm 23:33 Partly Cloudy 74 23.3 71 21.7 91 91 SE 7 11 29.94 1014 10 16.0934 0 0
11:52 pm 23:52 Mostly Clear 74 23.3 71 21.7 91 91 SSE 6 9 29.95 1014 10 16.0934 0 0

Powered by AerisWeather